Time,TemperatureF,DewpointF,PressureIn,WindDirection,WindDirectionDegrees,WindSpeedMPH,WindSpeedGustMPH,Humidity,HourlyPrecipIn,Conditions,Clouds,dailyrainin,SolarRadiationWatts/m^2,SoftwareType,DateUTC
2013-09-07 00:02:00,69.0,30.0,-100.00,East,94,3.0,6.0,23,0.00,,,0.00,1.000000,,2013-09-07 06:02:00,
2013-09-07 00:13:00,69.0,30.0,-100.00,East,94,3.0,6.0,23,0.00,,,0.00,1.000000,,2013-09-07 06:13:00,
2013-09-07 00:43:00,66.0,29.0,-100.00,SE,126,5.0,8.0,25,0.00,,,0.00,1.000000,,2013-09-07 06:43:00,
2013-09-07 00:52:00,66.0,29.0,-100.00,SE,126,5.0,8.0,25,0.00,,,0.00,1.000000,,2013-09-07 06:52:00,
2013-09-07 01:02:00,66.0,29.0,-100.00,SE,126,5.0,8.0,25,0.00,,,0.00,1.000000,,2013-09-07 07:02:00,
2013-09-07 01:12:00,66.0,29.0,-100.00,SE,126,5.0,8.0,25,0.00,,,0.00,1.000000,,2013-09-07 07:12:00,
2013-09-07 01:43:00,69.0,26.0,-100.00,SE,137,8.0,12.0,20,0.00,,,0.00,1.000000,,2013-09-07 07:43:00,
2013-09-07 01:52:00,69.0,26.0,-100.00,SE,137,8.0,12.0,20,0.00,,,0.00,1.000000,,2013-09-07 07:52:00,
2013-09-07 02:02:00,69.0,26.0,-100.00,SE,137,8.0,12.0,20,0.00,,,0.00,1.000000,,2013-09-07 08:02:00,
2013-09-07 02:12:00,69.0,26.0,-100.00,SE,137,8.0,12.0,20,0.00,,,0.00,1.000000,,2013-09-07 08:12:00,
2013-09-07 02:43:00,68.0,29.0,-100.00,SSE,151,6.0,13.0,23,0.00,,,-99.99,1.000000,,2013-09-07 08:43:00,
2013-09-07 02:53:00,68.0,29.0,-100.00,SSE,151,6.0,13.0,23,0.00,,,-99.99,1.000000,,2013-09-07 08:53:00,
2013-09-07 03:01:00,68.0,29.0,-100.00,SSE,151,6.0,13.0,23,0.00,,,-99.99,1.000000,,2013-09-07 09:01:00,
2013-09-07 03:12:00,68.0,29.0,-100.00,SSE,151,6.0,13.0,23,0.00,,,-99.99,1.000000,,2013-09-07 09:12:00,
2013-09-07 03:42:00,67.0,31.0,-100.00,SSE,154,8.0,11.0,26,0.00,,,0.00,1.000000,,2013-09-07 09:42:00,
2013-09-07 03:52:00,67.0,31.0,-100.00,SSE,154,8.0,11.0,26,0.00,,,0.00,1.000000,,2013-09-07 09:52:00,
2013-09-07 04:01:00,67.0,31.0,-100.00,SSE,154,8.0,11.0,26,0.00,,,0.00,1.000000,,2013-09-07 10:01:00,
2013-09-07 04:11:00,67.0,31.0,-100.00,SSE,154,8.0,11.0,26,0.00,,,0.00,1.000000,,2013-09-07 10:11:00,
2013-09-07 04:41:00,66.0,30.0,-100.00,SE,143,9.0,13.0,26,0.00,,,0.00,1.000000,,2013-09-07 10:41:00,
2013-09-07 04:51:00,66.0,30.0,-100.00,SE,143,9.0,13.0,26,0.00,,,0.00,1.000000,,2013-09-07 10:51:00,
2013-09-07 05:03:00,66.0,30.0,-100.00,SE,143,9.0,13.0,26,0.00,,,0.00,1.000000,,2013-09-07 11:03:00,
2013-09-07 05:13:00,66.0,30.0,-100.00,SE,143,9.0,13.0,26,0.00,,,0.00,1.000000,,2013-09-07 11:13:00,
2013-09-07 05:43:00,65.0,33.0,-100.00,East,87,8.0,14.0,30,0.00,,,0.00,1.000000,,2013-09-07 11:43:00,
2013-09-07 05:52:00,65.0,33.0,-100.00,East,87,8.0,14.0,30,0.00,,,0.00,1.000000,,2013-09-07 11:52:00,
2013-09-07 06:02:00,65.0,33.0,-100.00,East,87,8.0,14.0,30,0.00,,,0.00,1.000000,,2013-09-07 12:02:00,
2013-09-07 06:12:00,65.0,33.0,-100.00,East,87,8.0,14.0,30,0.00,,,0.00,1.000000,,2013-09-07 12:12:00,
2013-09-07 06:42:00,63.0,34.0,-100.00,East,93,7.0,15.0,34,0.00,,,0.00,1.000000,,2013-09-07 12:42:00,
2013-09-07 06:52:00,63.0,34.0,-100.00,East,93,7.0,15.0,34,0.00,,,0.00,1.000000,,2013-09-07 12:52:00,
2013-09-07 07:02:00,63.0,34.0,-100.00,East,93,7.0,15.0,34,0.00,,,0.00,1.000000,,2013-09-07 13:02:00,
2013-09-07 07:11:00,63.0,34.0,-100.00,East,93,7.0,15.0,34,0.00,,,0.00,1.000000,,2013-09-07 13:11:00,
2013-09-07 07:42:00,62.0,35.0,-100.00,ENE,77,8.0,11.0,37,0.00,,,0.00,7.000000,,2013-09-07 13:42:00,
2013-09-07 07:52:00,62.0,35.0,-100.00,ENE,77,8.0,11.0,37,0.00,,,0.00,7.000000,,2013-09-07 13:52:00,
2013-09-07 08:02:00,62.0,35.0,-100.00,ENE,77,8.0,11.0,37,0.00,,,0.00,7.000000,,2013-09-07 14:02:00,
2013-09-07 08:11:00,62.0,35.0,-100.00,ENE,77,8.0,11.0,37,0.00,,,0.00,7.000000,,2013-09-07 14:11:00,
2013-09-07 08:52:00,68.0,37.0,-100.00,ENE,72,9.0,13.0,32,0.00,,,-99.99,111.000000,,2013-09-07 14:52:00,
2013-09-07 09:02:00,68.0,37.0,-100.00,ENE,72,9.0,13.0,32,0.00,,,-99.99,111.000000,,2013-09-07 15:02:00,
2013-09-07 09:11:00,68.0,37.0,-100.00,ENE,72,9.0,13.0,32,0.00,,,-99.99,111.000000,,2013-09-07 15:11:00,
2013-09-07 09:44:00,74.0,41.0,-100.00,ESE,114,9.0,16.0,31,0.00,,,-99.99,361.000000,,2013-09-07 15:44:00,
2013-09-07 09:54:00,74.0,41.0,-100.00,ESE,114,9.0,16.0,31,0.00,,,-99.99,361.000000,,2013-09-07 15:54:00,
2013-09-07 10:03:00,74.0,41.0,-100.00,ESE,114,9.0,16.0,31,0.00,,,-99.99,361.000000,,2013-09-07 16:03:00,
2013-09-07 10:12:00,74.0,41.0,-100.00,ESE,114,9.0,16.0,31,0.00,,,-99.99,361.000000,,2013-09-07 16:12:00,
2013-09-07 10:43:00,78.0,42.0,-100.00,SE,135,9.0,16.0,28,0.00,,,-99.99,419.000000,,2013-09-07 16:43:00,
2013-09-07 10:53:00,78.0,42.0,-100.00,SE,135,9.0,16.0,28,0.00,,,-99.99,419.000000,,2013-09-07 16:53:00,
2013-09-07 11:04:00,78.0,42.0,-100.00,SE,135,9.0,16.0,28,0.00,,,-99.99,419.000000,,2013-09-07 17:04:00,
2013-09-07 11:12:00,78.0,42.0,-100.00,SE,135,9.0,16.0,28,0.00,,,-99.99,419.000000,,2013-09-07 17:12:00,
2013-09-07 11:43:00,81.0,42.0,-100.00,SSE,152,9.0,16.0,25,0.00,,,0.00,809.000000,,2013-09-07 17:43:00,
2013-09-07 11:52:00,81.0,42.0,-100.00,SSE,152,9.0,16.0,25,0.00,,,0.00,809.000000,,2013-09-07 17:52:00,
2013-09-07 12:01:00,81.0,42.0,-100.00,SSE,152,9.0,16.0,25,0.00,,,0.00,809.000000,,2013-09-07 18:01:00,
2013-09-07 12:12:00,81.0,42.0,-100.00,SSE,152,9.0,16.0,25,0.00,,,0.00,809.000000,,2013-09-07 18:12:00,
2013-09-07 12:43:00,83.0,40.0,-100.00,SSE,164,8.0,15.0,22,0.00,,,0.00,968.000000,,2013-09-07 18:43:00,
2013-09-07 12:52:00,83.0,40.0,-100.00,SSE,164,8.0,15.0,22,0.00,,,0.00,968.000000,,2013-09-07 18:52:00,
2013-09-07 13:02:00,83.0,40.0,-100.00,SSE,164,8.0,15.0,22,0.00,,,0.00,968.000000,,2013-09-07 19:02:00,
2013-09-07 13:11:00,83.0,40.0,-100.00,SSE,164,8.0,15.0,22,0.00,,,0.00,968.000000,,2013-09-07 19:11:00,
2013-09-07 13:42:00,84.0,37.0,-100.00,South,182,6.0,19.0,19,0.00,,,0.00,1086.000000,,2013-09-07 19:42:00,
2013-09-07 13:52:00,84.0,37.0,-100.00,South,182,6.0,19.0,19,0.00,,,0.00,1086.000000,,2013-09-07 19:52:00,
2013-09-07 14:02:00,84.0,37.0,-100.00,South,182,6.0,19.0,19,0.00,,,0.00,1086.000000,,2013-09-07 20:02:00,
2013-09-07 14:11:00,84.0,37.0,-100.00,South,182,6.0,19.0,19,0.00,,,0.00,1086.000000,,2013-09-07 20:11:00,
2013-09-07 14:42:00,85.0,37.0,-100.00,SSE,161,9.0,17.0,18,0.00,,,-99.99,1110.000000,,2013-09-07 20:42:00,
2013-09-07 14:53:00,85.0,37.0,-100.00,SSE,161,9.0,17.0,18,0.00,,,-99.99,1110.000000,,2013-09-07 20:53:00,
2013-09-07 15:02:00,85.0,37.0,-100.00,SSE,161,9.0,17.0,18,0.00,,,-99.99,1110.000000,,2013-09-07 21:02:00,
2013-09-07 15:12:00,85.0,37.0,-100.00,SSE,161,9.0,17.0,18,0.00,,,-99.99,1110.000000,,2013-09-07 21:12:00,
2013-09-07 15:44:00,87.0,37.0,-100.00,SE,129,6.0,18.0,17,0.00,,,0.00,907.000000,,2013-09-07 21:44:00,
2013-09-07 15:54:00,87.0,37.0,-100.00,SE,129,6.0,18.0,17,0.00,,,0.00,907.000000,,2013-09-07 21:54:00,
2013-09-07 16:04:00,87.0,37.0,-100.00,SE,129,6.0,18.0,17,0.00,,,0.00,907.000000,,2013-09-07 22:04:00,
2013-09-07 16:13:00,87.0,37.0,-100.00,SE,129,6.0,18.0,17,0.00,,,0.00,907.000000,,2013-09-07 22:13:00,
2013-09-07 16:43:00,85.0,34.0,-100.00,South,172,8.0,20.0,16,0.00,,,-99.99,749.000000,,2013-09-07 22:43:00,
2013-09-07 16:53:00,85.0,34.0,-100.00,South,172,8.0,20.0,16,0.00,,,-99.99,749.000000,,2013-09-07 22:53:00,
2013-09-07 17:03:00,85.0,34.0,-100.00,South,172,8.0,20.0,16,0.00,,,-99.99,749.000000,,2013-09-07 23:03:00,
2013-09-07 17:12:00,85.0,34.0,-100.00,South,172,8.0,20.0,16,0.00,,,-99.99,749.000000,,2013-09-07 23:12:00,
2013-09-07 17:42:00,86.0,35.0,-100.00,SSE,152,8.0,16.0,16,0.00,,,0.00,467.000000,,2013-09-07 23:42:00,
2013-09-07 17:53:00,86.0,35.0,-100.00,SSE,152,8.0,16.0,16,0.00,,,0.00,467.000000,,2013-09-07 23:53:00,
2013-09-07 18:02:00,86.0,35.0,-100.00,SSE,152,8.0,16.0,16,0.00,,,0.00,467.000000,,2013-09-08 00:02:00,
2013-09-07 18:11:00,86.0,35.0,-100.00,SSE,152,8.0,16.0,16,0.00,,,0.00,467.000000,,2013-09-08 00:11:00,
2013-09-07 18:43:00,85.0,30.0,-100.00,SSE,156,10.0,17.0,14,0.00,,,0.00,422.000000,,2013-09-08 00:43:00,
2013-09-07 18:52:00,85.0,30.0,-100.00,SSE,156,10.0,17.0,14,0.00,,,0.00,422.000000,,2013-09-08 00:52:00,
2013-09-07 19:01:00,85.0,30.0,-100.00,SSE,156,10.0,17.0,14,0.00,,,0.00,422.000000,,2013-09-08 01:01:00,
2013-09-07 19:11:00,85.0,30.0,-100.00,SSE,156,10.0,17.0,14,0.00,,,0.00,422.000000,,2013-09-08 01:11:00,
2013-09-07 19:42:00,76.0,43.0,-100.00,SSW,196,15.0,27.0,31,0.00,,,0.00,177.000000,,2013-09-08 01:42:00,
2013-09-07 19:52:00,76.0,43.0,-100.00,SSW,196,15.0,27.0,31,0.00,,,0.00,177.000000,,2013-09-08 01:52:00,
2013-09-07 20:02:00,76.0,43.0,-100.00,SSW,196,15.0,27.0,31,0.00,,,0.00,177.000000,,2013-09-08 02:02:00,
2013-09-07 20:11:00,76.0,43.0,-100.00,SSW,196,15.0,27.0,31,0.00,,,0.00,177.000000,,2013-09-08 02:11:00,
2013-09-07 20:43:00,71.0,45.0,-100.00,South,188,7.0,21.0,39,0.00,,,0.00,5.000000,,2013-09-08 02:43:00,
2013-09-07 20:52:00,71.0,45.0,-100.00,South,188,7.0,21.0,39,0.00,,,0.00,5.000000,,2013-09-08 02:52:00,
2013-09-07 21:02:00,71.0,45.0,-100.00,South,188,7.0,21.0,39,0.00,,,0.00,5.000000,,2013-09-08 03:02:00,
2013-09-07 21:12:00,71.0,45.0,-100.00,South,188,7.0,21.0,39,0.00,,,0.00,5.000000,,2013-09-08 03:12:00,
2013-09-07 21:44:00,69.0,46.0,-100.00,South,171,8.0,12.0,43,0.00,,,0.00,1.000000,,2013-09-08 03:44:00,
2013-09-07 21:54:00,69.0,46.0,-100.00,South,171,8.0,12.0,43,0.00,,,0.00,1.000000,,2013-09-08 03:54:00,
2013-09-07 22:02:00,-999.0,-99.9,-100.00,South,171,8.0,12.0,-999,-99.99,,,-99.99,1.000000,,2013-09-08 04:02:00,
2013-09-07 22:14:00,69.0,46.0,-100.00,South,171,8.0,12.0,43,0.00,,,0.00,1.000000,,2013-09-08 04:14:00,
2013-09-07 22:43:00,70.0,46.0,-100.00,South,182,12.0,16.0,42,0.00,,,0.00,1.000000,,2013-09-08 04:43:00,
2013-09-07 22:54:00,70.0,46.0,-100.00,South,182,12.0,16.0,42,0.00,,,0.00,1.000000,,2013-09-08 04:54:00,
2013-09-07 23:03:00,70.0,46.0,-100.00,South,182,12.0,16.0,42,0.00,,,0.00,1.000000,,2013-09-08 05:03:00,
2013-09-07 23:12:00,70.0,46.0,-100.00,South,182,12.0,16.0,42,0.00,,,0.00,1.000000,,2013-09-08 05:12:00,
2013-09-07 23:43:00,69.0,46.0,-100.00,South,184,9.0,16.0,44,0.00,,,0.00,1.000000,,2013-09-08 05:43:00,
2013-09-07 23:52:00,69.0,46.0,-100.00,South,184,9.0,16.0,44,0.00,,,0.00,1.000000,,2013-09-08 05:52:00,